Address 0x178759b5717769bd7c1cb042c81c721305f74bce 3

Txn Hash Method
Block
From
To
Value [Txn Fee]
0xa5f942f13027106b1f7e9f95330bb12eff6b95bce3330168b58dcfcfe5d82173Transfer203990012022-09-28 21:06:344 days 20 hrs ago0x178759b5717769bd7c1cb042c81c721305f74bceOUT Avalanche Bridge: USDT.e0 AVAX0.0009372255 26.5
0x650d46f7f2f3530b13fbc32668bd4fa592dd61ac307443060a71f54f726ea930Unwrap203987562022-09-28 20:58:164 days 20 hrs ago0x178759b5717769bd7c1cb042c81c721305f74bceOUT Avalanche Bridge: USDT.e0 AVAX0.0010205945 26.5
0x39cf45cb6970f0e6cfeab09fdfcb045f13de0f8a2ff35b144fd99c2b57ba1efeTransfer203970922022-09-28 20:00:534 days 21 hrs agoAvalanche: Bridge IN 0x178759b5717769bd7c1cb042c81c721305f74bce0.1 AVAX0.000567 27
0x0e981170a421dd2f78de2ba3469e461e0a16e357898ed6a2e7b4de4ec83c9846Transfer203919482022-09-28 17:04:455 days 15 mins ago0x178759b5717769bd7c1cb042c81c721305f74bceOUT Pangolin: PNG Token0 AVAX0.0010751315 26.5
0x94c4b9d75960caadd590a0f30ce9d1737950e48536731339a1bdbedc53e5bb62Transfer203915822022-09-28 16:52:185 days 27 mins agoAvalanche: Bridge IN 0x178759b5717769bd7c1cb042c81c721305f74bce0.1 AVAX0.000567 27
0x58d4c188d55b0c11b9025068a5d72aff1bcc958fcf8193bc9b6da0f4d9de9a24Transfer203897762022-09-28 15:49:545 days 1 hr agoAvalanche: Bridge IN 0x178759b5717769bd7c1cb042c81c721305f74bce0.1 AVAX0.000567 27
0xba7f9c2987df57a83b2e768a7424c421c7452e75e3d87f51ffd857e200f98e62Transfer203055922022-09-26 15:42:037 days 1 hr ago0x178759b5717769bd7c1cb042c81c721305f74bceOUT Pangolin: PNG Token0 AVAX0.0010741775 26.5
0x36f8d0f5d8ce5a2cb4e3bb447ff409c6f6110110a8bb442bb9d4e7150d0758ceTransfer201868232022-09-23 18:50:229 days 22 hrs ago0x178759b5717769bd7c1cb042c81c721305f74bceOUT Pangolin: PNG Token0 AVAX0.0010738595 26.5
0xd3da3223a767cdac9c8b8692611c7ce50e8a7ac51831aa6eece8bf7ed65df64aTransfer201867832022-09-23 18:49:029 days 22 hrs ago0x178759b5717769bd7c1cb042c81c721305f74bceOUT Avalanche Bridge: USDT.e0 AVAX0.0009372255 26.5
0x7e303614bfe891c9bdf9d8d64c85b07f53372c28cc3d65967124c32c93d12b34Transfer201864172022-09-23 18:36:069 days 22 hrs agoAvalanche: Bridge IN 0x178759b5717769bd7c1cb042c81c721305f74bce0.1 AVAX0.000567 27
0xcc660efd570910ba35f7ce9f7736c463270515ceee76f4623afb67562e45e54fSwap Tokens For ...201793102022-09-23 14:26:2710 days 2 hrs ago0x178759b5717769bd7c1cb042c81c721305f74bceOUT Pangolin: Router0 AVAX0.0044567525
0x296d8f31ee9f212c0f749244fe24a1b03481c94898fa6e3b41f5120a5db85702Swap Tokens For ...201793002022-09-23 14:26:0810 days 2 hrs ago0x178759b5717769bd7c1cb042c81c721305f74bceOUT Pangolin: Router0 AVAX0.0044567525
0xc56889804d834110e737cad0487fecf8f9e4a48bfc13f522d6bc6e82ede66bc3Swap Tokens For ...201792892022-09-23 14:25:4610 days 2 hrs ago0x178759b5717769bd7c1cb042c81c721305f74bceOUT Pangolin: Router0 AVAX0.0044567525
0xf0ca2d6a9268438285d54dbae5e8c6204642a54d1296eadc74f05e6b09d0ff76Swap Tokens For ...201792782022-09-23 14:25:2110 days 2 hrs ago0x178759b5717769bd7c1cb042c81c721305f74bceOUT Pangolin: Router0 AVAX0.0044570525
0x78ca192f7ac7d9cfdae5f7f06c1d983244c99235c91c537e4add03ffa4094c0aSwap Tokens For ...201738302022-09-23 11:14:1210 days 6 hrs ago0x178759b5717769bd7c1cb042c81c721305f74bceOUT Pangolin: Router0 AVAX0.0044567525
0x3dcd3a3f8907965d6007b9d4bc4eb703341009b9fd4b90c434e20d3d94c3e79cSwap Tokens For ...201734492022-09-23 11:00:2910 days 6 hrs ago0x178759b5717769bd7c1cb042c81c721305f74bceOUT Pangolin: Router0 AVAX0.0044567525
0x467e10107d3b74a5223857941cbee34e2fedcd414db3c24317390a32880cca8aSwap Tokens For ...201733662022-09-23 10:57:2910 days 6 hrs ago0x178759b5717769bd7c1cb042c81c721305f74bceOUT Pangolin: Router0 AVAX0.0044567525
0x71cd92a7b86f47f7f6eb815498a0c68674eea88943fc3cdc7b3ade8432e82a3fSwap Tokens For ...201733562022-09-23 10:57:0910 days 6 hrs ago0x178759b5717769bd7c1cb042c81c721305f74bceOUT Pangolin: Router0 AVAX0.0044567525
0xe459a96f1929879c37a62c42b9196b7181ad6e0aba9e98e613c8d21979275c38Swap Tokens For ...201733452022-09-23 10:56:4710 days 6 hrs ago0x178759b5717769bd7c1cb042c81c721305f74bceOUT Pangolin: Router0 AVAX0.0044567525
0x25cf7ed7783629c996ed9f606330f5ad2b9877be28362cde3e7d1edceb754b22Swap Tokens For ...201732682022-09-23 10:54:0710 days 6 hrs ago0x178759b5717769bd7c1cb042c81c721305f74bceOUT Pangolin: Router0 AVAX0.0044567525
0x6cd763d7b36b02025242dfa77a9abd7a211ba0abbb864831f280ec601b51b87eSwap Tokens For ...201732602022-09-23 10:53:4810 days 6 hrs ago0x178759b5717769bd7c1cb042c81c721305f74bceOUT Pangolin: Router0 AVAX0.0044567525
0xc4be4c3ea5d2fa7c839496e1637587d70ea8ffd45dfac48241d88e18ab4c585bSwap Tokens For ...201732122022-09-23 10:52:0810 days 6 hrs ago0x178759b5717769bd7c1cb042c81c721305f74bceOUT Pangolin: Router0 AVAX0.0044567525
0x88dd084fe4dfc509c6a3574aab94ffe6189c0113c770f736242c1cf9bcbd182cSwap Tokens For ...201732022022-09-23 10:51:4810 days 6 hrs ago0x178759b5717769bd7c1cb042c81c721305f74bceOUT Pangolin: Router0 AVAX0.0044567525
0xa318433740d1cefd16718e8c0c3cae30768c97c0499c5f6f2ed84e080e260661Swap Tokens For ...201731852022-09-23 10:51:1410 days 6 hrs ago0x178759b5717769bd7c1cb042c81c721305f74bceOUT Pangolin: Router0 AVAX0.0044567525
0xf13f9ab272550485bc1f8c3ba6c112e817949825262ae2edbdfa1e192bc5a3afSwap Tokens For ...201731732022-09-23 10:50:4710 days 6 hrs ago0x178759b5717769bd7c1cb042c81c721305f74bceOUT Pangolin: Router0 AVAX0.0044567525
[ Download CSV Export 
Latest 7 internal transactions
Parent Txn Hash Block From To Value
0xdfdebaf999445d76b0324edfe3f929473e03f5e0b5c9f5f72ee4d6d33e42703894630652022-01-12 8:23:15264 days 8 hrs ago Wrapped AVAX0x178759b5717769bd7c1cb042c81c721305f74bce0.01 AVAX
0x9d66edb5f534a19b2918d646a9d3373fe6a005dcc6728bdc40a45a14aca7a0dc84913752021-12-20 16:22:47287 days 57 mins ago Pangolin: Router0x178759b5717769bd7c1cb042c81c721305f74bce2 AVAX
0xce35e26cc24440f0939864e5281998a91bfd17cb5cd6eee5179012df3cf4a42b70734862021-11-17 17:19:23320 days ago Pangolin: Router0x178759b5717769bd7c1cb042c81c721305f74bce2 AVAX
0x4195f567f083b8305d82a8184204984dd268296f6b0f1d157f4e07506a19548761831902021-10-27 18:27:02340 days 22 hrs ago Pangolin: Router0x178759b5717769bd7c1cb042c81c721305f74bce1 AVAX
0xb4f3a505b3432605a4d6b6e7ced8af9b98c30a1e69e6670bcd8abe2500b015f352762522021-10-06 6:08:58362 days 11 hrs ago Pangolin: Router0x178759b5717769bd7c1cb042c81c721305f74bce2.216811097782629416 AVAX
0x827817067aa104c7728ce12b8d3e734c509b90b6377076fd1386989e4c87ac7250944832021-10-01 22:22:11366 days 18 hrs ago Pangolin: Router0x178759b5717769bd7c1cb042c81c721305f74bce1.5 AVAX
0xda02c59abb75f4013249aa305cac5a2e51d2f863e74179c67465d3576a1a46a948706212021-09-26 13:45:08372 days 3 hrs ago Pangolin: Router0x178759b5717769bd7c1cb042c81c721305f74bce2 AVAX
[ Download CSV Export 
Loading

Contract Name:
0

Compiler Version
0

Optimization Enabled:
0

Other Settings:
-NA-
Block Transaction Gas Used Reward
Age Block Fee Address BC Fee Address Voting Power Jailed Incoming
Block Uncle Number Difficulty Gas Used Reward
Loading
Make sure to use the "Vote Down" button for any spammy posts, and the "Vote Up" for interesting conversations.